RH
12 12 13 14 16 17 17 17 18 19 21 22 23 25 27 26 22 21 22 23 25 29 32 36 38 38 37 35 40 47 52 55 60 71 82 85 88 88 87 86 84 82 81 84 86 88 89 89 89 91 90 90 89 88 86 83 81 76 69 59 49 44 44 45 45 45 45 42 37 30 25 21 19 17 16 15 14 13 11 10 8 7 6 5 5 5
12 13 14 16 17 17 18 18 18 20 22 22 22 23 23 24 23 22 25 26 29 34 37 38 38 37 36 38 46 52 55 61 68 76 84 86 88 88 86 85 83 83 85 87 89 89 91 92 91 91 89 89 87 84 79 74 69 63 55 48 44 43 44 45 45 43 41 37 32 25 20 14 11 10 9 8 7 6 6 5 5 6 6 6 7 7
12 13 15 17 17 18 18 18 19 20 21 21 22 23 24 25 24 23 26 28 34 40 38 35 37 39 40 42 48 52 56 65 73 80 86 88 87 86 85 84 83 85 88 89 89 90 91 91 90 89 88 86 82 75 70 65 61 58 53 49 46 43 41 41 39 37 33 28 22 15 11 8 7 7 7 7 6 6 6 6 7 8 10 13 14 14
14 15 17 17 18 18 18 19 20 20 21 22 22 25 27 26 27 28 27 29 36 39 38 39 42 43 42 43 47 53 58 65 72 79 85 86 86 85 83 83 85 87 89 88 89 90 90 91 90 88 85 81 76 71 65 62 59 54 51 46 43 40 37 34 29 25 20 14 10 8 7 7 9 11 12 13 10 9 9 9 11 14 19 23 23 23
16 17 18 18 19 19 19 20 20 20 22 24 24 28 28 25 27 30 29 30 32 34 39 43 44 38 36 43 48 53 59 64 70 77 81 83 83 84 84 85 88 88 88 87 89 91 91 92 91 88 84 78 72 68 63 59 54 48 42 36 32 30 26 20 15 12 9 7 7 7 7 8 12 16 21 22 17 17 19 20 22 25 29 32 31 31
17 18 18 19 19 20 21 21 21 23 25 25 26 28 27 26 28 30 32 34 34 37 40 41 51 49 38 41 46 47 54 59 64 70 76 80 82 83 86 87 88 87 87 90 92 94 92 90 89 85 80 74 67 62 58 53 46 38 30 22 18 16 12 9 9 8 8 7 7 8 8 10 15 21 26 29 24 21 25 28 30 31 33 36 37 37
17 18 19 19 21 22 22 22 23 26 27 28 28 27 27 28 31 32 33 36 37 42 39 36 54 60 43 38 43 44 50 55 59 65 71 78 82 84 87 87 86 87 90 94 94 93 90 86 83 79 75 69 62 56 52 47 40 31 20 12 9 8 7 9 10 9 8 8 8 11 13 17 27 35 37 38 33 25 25 29 30 31 32 36 40 42
18 19 19 21 23 23 22 23 25 27 30 30 28 29 30 29 33 35 34 37 38 40 39 33 42 54 47 41 44 45 49 52 54 61 69 78 83 84 86 86 87 91 94 95 93 89 85 81 77 74 70 64 58 54 51 49 43 30 16 10 8 7 9 13 15 12 9 10 11 14 19 24 34 46 49 49 45 34 29 31 32 32 34 37 44 47
18 19 21 23 24 24 23 25 27 28 30 31 29 31 32 32 35 35 34 36 37 40 41 35 38 51 50 43 46 50 51 51 50 58 72 80 81 81 85 89 93 96 95 91 87 83 79 78 75 72 67 62 60 58 57 54 45 29 17 13 12 10 14 17 19 17 13 12 16 21 27 32 39 49 55 56 54 47 40 37 36 37 37 40 47 50
20 21 22 23 25 25 24 27 27 29 32 31 31 31 30 32 33 34 37 36 38 43 43 38 39 49 50 44 47 52 53 52 53 63 76 80 81 85 91 97 97 94 91 86 82 80 79 78 76 74 71 68 67 65 62 55 42 28 22 20 18 17 20 21 22 23 19 18 22 28 35 39 43 49 54 57 58 57 53 48 43 43 44 46 50 51
21 22 23 24 25 25 26 29 29 32 35 32 32 33 30 31 32 36 37 34 41 48 43 41 42 49 57 49 41 49 54 53 61 76 84 83 86 93 97 98 93 87 85 82 80 80 80 80 81 81 79 75 71 67 61 50 39 33 31 29 25 24 26 28 30 31 28 25 25 28 32 35 38 41 46 52 56 59 60 59 56 55 54 55 57 54
21 23 23 24 24 26 28 29 29 32 33 33 35 35 36 36 36 39 39 40 56 61 47 42 45 52 60 51 42 51 57 58 69 83 88 89 94 97 95 88 82 82 84 84 85 86 87 87 86 86 83 76 70 64 57 49 44 43 41 38 35 33 34 35 33 32 30 28 26 25 26 27 29 31 36 42 50 56 60 62 63 63 63 64 63 58
20 23 24 24 25 27 30 30 30 31 31 35 36 38 50 54 50 54 54 54 66 65 49 44 50 55 55 48 48 54 57 63 71 81 90 94 93 88 81 76 78 85 90 91 93 94 94 93 90 87 81 72 64 58 53 51 51 51 50 51 51 45 41 39 35 32 30 28 26 25 24 23 23 24 28 32 40 49 55 57 59 62 63 65 65 62
22 24 23 25 26 28 33 35 36 34 34 39 40 45 59 64 68 76 71 64 66 59 48 48 56 59 52 48 52 54 58 65 71 82 93 90 83 77 74 79 87 93 97 99 100 100 98 95 88 78 67 58 53 51 54 57 60 63 66 68 65 55 47 43 39 37 35 33 29 26 23 21 20 20 22 25 30 39 47 49 50 54 58 60 60 60
31 31 26 27 29 31 36 37 39 38 36 39 42 46 52 55 70 83 75 71 71 61 52 54 58 59 53 52 55 54 59 68 78 86 87 79 74 74 78 88 96 100 101 101 98 94 88 80 70 60 54 52 52 56 63 70 76 83 85 84 79 66 54 48 44 41 41 40 34 29 25 20 17 17 18 20 23 29 39 43 44 47 53 56 56 56
34 31 27 28 31 33 35 35 36 37 37 41 43 47 53 51 57 66 65 62 61 60 59 57 55 52 50 52 55 59 67 77 83 82 77 75 77 80 87 95 98 97 92 86 81 75 69 64 58 57 59 60 61 67 76 85 94 100 99 98 94 79 62 53 48 46 48 48 43 37 31 22 16 15 15 17 18 21 30 37 38 42 49 53 54 54
36 29 25 29 30 32 35 35 37 40 41 44 46 50 56 53 51 58 60 54 57 69 68 57 54 51 50 59 64 68 77 81 81 79 78 81 85 89 95 98 94 85 75 70 70 68 67 65 64 66 69 69 70 77 89 97 100 101 101 101 96 83 69 61 55 54 56 57 54 48 38 26 17 14 13 14 16 18 24 30 33 40 46 49 50 51
41 32 25 29 31 31 35 35 36 41 44 47 51 54 57 56 53 57 64 66 70 76 66 53 56 57 58 70 73 70 79 85 84 84 87 90 94 96 95 85 73 64 62 67 72 74 73 71 69 71 75 77 79 84 94 101 101 100 100 97 90 81 72 67 63 63 67 69 68 58 40 25 17 15 13 13 15 18 22 28 33 38 44 46 48 49
42 40 28 28 33 32 35 37 36 40 47 51 54 58 61 63 61 64 78 85 82 80 70 58 59 58 58 70 77 76 82 88 87 88 94 98 98 91 75 58 54 65 78 83 82 78 76 76 75 75 78 82 83 83 89 96 97 97 95 93 90 86 82 78 75 76 76 76 74 58 35 21 16 14 14 15 19 23 26 29 33 37 41 45 47 46
41 48 38 29 32 34 34 38 41 44 52 56 59 63 63 63 65 71 77 79 82 88 84 74 67 61 60 72 81 82 84 87 90 96 102 99 84 63 47 50 71 86 86 83 83 82 82 86 87 84 84 85 85 84 85 89 90 92 97 100 100 98 94 90 84 78 73 67 60 43 23 15 16 20 25 28 32 37 37 36 37 42 45 47 48 47
39 51 48 32 31 36 38 44 48 50 56 60 64 66 67 69 70 72 69 67 78 88 87 88 84 68 64 73 78 80 84 89 96 102 98 78 49 36 52 81 89 70 57 71 91 95 96 99 99 95 90 91 94 93 91 94 96 99 102 101 100 101 98 90 79 67 57 47 34 21 13 19 30 43 52 51 49 52 53 50 49 51 53 53 52 51
36 47 49 39 35 35 37 42 45 49 55 61 66 69 73 76 74 78 80 71 74 84 86 95 95 75 64 69 74 79 86 92 99 95 73 42 30 53 89 97 73 48 57 84 98 98 99 99 96 88 79 82 95 100 101 103 101 101 99 94 91 91 83 70 58 45 32 21 16 18 30 47 62 70 73 67 62 63 64 64 61 60 60 58 57 56
35 40 45 44 39 36 38 41 42 46 51 57 67 72 75 77 76 87 93 82 84 91 84 87 92 74 61 67 75 80 87 91 85 65 40 27 50 92 100 71 49 57 82 98 98 94 87 74 65 59 50 48 56 68 80 88 87 86 84 76 66 58 48 38 27 17 13 19 36 55 70 80 84 82 80 75 70 68 68 69 68 65 62 59 58 58
35 39 44 42 36 33 36 40 44 49 54 62 73 76 78 81 78 79 82 84 95 96 88 94 94 70 59 68 76 81 87 78 51 37 44 63 88 94 66 41 41 54 70 81 78 67 49 33 28 27 23 20 21 26 34 45 49 49 47 41 32 25 20 14 12 20 39 61 79 90 92 92 89 86 84 80 76 73 70 70 70 68 64 60 59 60
38 41 47 53 54 49 45 48 51 55 61 69 75 79 82 81 76 74 77 86 92 88 94 105 94 73 65 68 75 84 78 50 27 43 78 98 93 60 31 37 44 39 47 56 54 53 51 47 41 31 22 15 14 14 15 20 25 22 18 16 13 13 15 23 41 64 83 95 97 96 94 93 91 88 86 83 81 79 75 72 72 71 68 64 63 62
41 43 49 61 71 74 72 69 64 64 69 70 73 83 86 80 77 80 85 92 94 92 98 98 90 81 68 63 78 80 58 36 35 62 87 80 54 26 25 50 56 48 59 67 69 81 89 86 79 68 54 37 24 18 14 13 14 14 16 21 27 39 53 68 86 96 98 98 97 96 95 94 93 93 91 89 87 83 79 76 75 73 70 68 66 65
44 46 49 55 62 67 69 64 60 66 73 73 77 85 85 79 79 83 89 97 99 98 93 83 83 85 70 70 85 71 53 58 63 71 73 47 19 17 39 62 69 71 83 88 91 98 97 95 95 93 88 78 65 56 50 48 51 54 60 67 74 85 92 96 99 98 98 98 98 98 97 98 99 99 99 98 95 91 86 82 79 76 74 72 70 68
46 49 51 52 51 51 54 54 56 65 73 78 83 82 77 75 77 81 90 96 98 101 95 76 75 83 76 79 86 70 69 83 71 56 46 22 13 36 60 74 82 89 95 97 98 98 95 96 99 98 98 95 91 92 91 92 94 95 96 96 97 98 98 99 99 98 98 98 98 99 100 101 103 103 102 103 101 99 96 92 87 82 78 75 72 70
47 51 53 50 45 42 46 49 55 63 69 75 77 71 70 77 80 82 87 91 94 98 91 75 71 78 77 77 79 71 66 62 43 28 21 20 40 66 79 88 95 98 99 100 100 99 99 101 102 101 99 96 98 101 101 100 98 96 96 96 97 99 99 99 98 98 98 99 100 101 100 100 101 101 101 101 100 100 100 100 99 94 88 83 79 77
47 50 52 51 45 40 44 49 52 56 58 62 65 64 68 78 82 84 88 91 90 85 77 69 64 65 67 68 65 54 42 30 16 13 24 46 69 82 88 97 102 100 99 100 100 100 101 103 103 101 97 98 102 102 99 98 95 95 96 97 99 100 98 96 97 99 100 100 100 100 100 100 100 100 100 100 100 100 99 100 102 101 99 96 93 92
48 48 49 52 49 42 45 50 48 46 50 56 60 61 67 77 84 88 91 90 86 77 64 59 61 62 56 46 34 24 19 13 7 20 49 71 80 86 94 100 101 99 99 101 103 101 99 100 99 99 100 101 102 100 98 96 96 98 100 100 101 99 97 98 99 100 100 100 100 100 100 100 100 100 100 100 100 100 100 100 100 100 100 100 100 100
47 47 45 51 55 47 47 52 45 41 50 58 59 67 81 88 89 87 82 81 79 65 54 65 81 71 43 21 13 11 11 6 11 41 71 80 85 95 100 99 100 100 100 103 104 101 100 98 96 99 102 100 98 98 97 97 99 102 101 101 100 99 98 99 99 100 101 100 100 100 100 100 100 100 100 100 100 100 100 100 100 100 100 100 100 100
46 46 45 52 58 50 48 56 50 42 53 61 65 81 91 85 81 75 63 62 60 45 48 74 78 49 20 11 13 13 9 6 26 63 84 87 94 103 101 100 102 101 102 103 101 99 99 97 97 100 100 98 97 98 100 101 102 101 100 101 100 98 98 100 100 100 100 100 100 100 100 100 100 100 100 100 100 100 100 100 100 100 100 100 100 100
46 47 47 54 62 57 54 58 52 46 59 70 73 83 83 71 71 70 53 46 39 26 32 47 36 16 12 14 15 13 8 12 43 79 93 96 102 104 102 102 102 100 101 99 97 100 99 97 98 99 97 97 98 99 102 104 102 100 102 102 100 98 99 99 100 100 100 100 100 100 100 100 100 100 100 100 100 100 100 100 100 100 100 100 100 100
46 47 48 54 62 62 59 66 65 56 60 69 71 75 71 57 55 52 35 24 24 24 27 24 12 10 14 11 11 11 8 23 58 85 94 99 103 103 102 102 101 102 101 96 97 100 99 96 96 96 96 97 97 99 101 102 101 102 102 101 99 98 99 100 101 102 101 100 100 100 100 100 100 100 100 100 100 100 100 100 100 100 100 100 100 100
46 48 51 54 59 62 68 84 85 65 56 62 64 63 60 57 63 60 35 17 23 31 29 17 9 10 10 9 10 8 10 35 67 86 95 99 100 101 102 102 102 102 99 97 99 99 95 94 95 95 97 97 97 99 100 102 104 103 101 101 99 98 100 101 101 103 101 100 100 100 100 100 100 100 100 100 100 100 100 100 100 100 101 100 100 100
47 50 53 55 60 66 74 82 76 61 58 61 59 58 62 69 78 71 42 24 27 29 20 11 10 10 9 9 7 5 17 41 62 81 94 96 97 102 103 102 103 102 100 100 99 95 93 95 96 97 98 99 101 101 101 103 104 101 98 99 100 99 101 102 102 102 100 100 101 101 101 101 100 100 100 100 100 100 101 100 100 101 101 100 100 100
48 51 54 58 62 67 75 81 78 70 67 63 58 62 63 56 48 41 32 27 23 16 10 9 11 10 8 9 6 6 23 42 53 71 85 88 94 103 102 100 101 100 99 98 92 90 92 93 95 96 98 102 103 103 104 104 101 97 95 95 98 100 100 100 100 101 101 102 101 100 100 101 101 101 101 100 99 98 99 100 100 100 100 100 101 101
48 52 55 59 63 66 76 90 89 74 64 61 62 65 60 42 24 19 25 23 13 8 10 10 10 10 9 9 6 9 31 53 59 67 78 85 95 103 100 96 97 96 96 92 87 88 90 92 96 99 100 103 104 103 105 103 97 93 91 91 94 97 97 96 97 99 101 102 101 100 97 97 99 100 101 102 101 98 98 100 100 101 101 101 101 100
48 53 56 60 63 67 79 90 83 66 60 62 62 62 53 33 19 24 32 23 8 9 12 9 9 10 8 8 6 11 41 72 77 75 80 89 98 103 99 94 93 93 90 86 85 89 91 93 96 97 98 101 102 102 103 100 94 90 87 89 92 94 95 96 97 99 100 99 99 99 97 96 97 97 98 101 102 100 100 100 100 101 102 101 100 100
51 55 57 59 61 65 77 86 77 63 61 63 64 61 46 23 19 35 38 21 8 10 10 8 9 9 7 8 7 13 43 77 88 83 82 89 99 102 97 93 94 93 88 84 85 89 93 97 100 98 98 100 101 102 102 97 91 86 84 86 88 90 93 96 97 97 96 96 98 99 97 98 100 100 99 100 101 101 100 100 100 101 101 100 100 100
54 56 55 57 61 64 71 77 71 60 58 61 62 55 37 20 21 28 21 10 9 11 8 8 9 7 7 7 6 16 43 71 83 80 79 88 98 99 94 92 92 92 89 86 85 87 92 99 102 100 99 98 99 101 101 96 89 85 83 83 84 86 89 92 94 94 91 90 94 97 98 100 101 101 100 99 99 100 100 101 101 101 100 100 100 100
56 57 54 54 60 64 67 72 73 68 62 61 58 46 28 17 15 14 8 8 11 9 7 8 7 6 7 5 5 18 42 65 76 74 74 85 95 96 94 91 89 89 89 86 85 87 90 96 101 102 99 96 97 99 99 96 90 85 83 85 86 87 88 89 91 91 88 87 90 94 95 96 97 97 96 96 96 97 98 100 100 99 99 100 100 100
55 56 56 56 59 64 67 70 72 69 64 62 58 46 27 13 9 9 9 9 8 7 8 8 6 6 6 5 5 17 40 62 70 68 70 80 89 92 93 90 88 89 89 87 86 86 87 92 99 102 101 98 98 99 97 94 90 87 85 87 88 90 91 90 88 88 89 90 93 96 96 96 97 96 94 93 93 94 96 96 93 96 100 101 100 101
52 53 55 56 56 58 61 62 61 61 62 61 54 40 24 13 9 10 9 8 8 8 8 6 6 6 6 4 6 17 38 59 66 64 67 75 83 88 90 88 87 87 88 90 89 87 87 89 93 98 102 101 100 101 97 91 88 87 86 86 88 90 90 88 87 88 91 92 95 100 101 99 99 100 98 93 87 85 86 86 84 90 100 101 99 101
51 52 52 52 53 54 56 59 60 61 61 59 50 37 24 14 10 9 8 8 8 7 7 7 7 6 5 4 5 14 36 56 62 61 64 70 76 83 85 85 85 84 85 88 89 88 88 88 89 94 99 101 103 103 99 92 88 87 86 86 88 89 88 87 87 89 91 93 96 101 103 100 99 101 101 98 92 86 83 81 81 88 97 101 101 102
50 51 51 51 52 53 53 57 61 63 62 59 51 38 24 15 11 10 9 8 8 7 7 7 6 5 5 5 4 11 32 53 59 58 61 65 70 75 78 80 81 82 82 83 85 86 87 86 86 89 91 96 101 102 100 96 92 89 88 87 88 89 88 88 89 91 93 94 95 97 100 100 100 101 100 99 99 96 92 90 90 91 95 100 101 99
49 51 52 51 50 50 51 55 60 62 62 59 52 40 27 18 13 10 8 8 8 7 7 6 6 6 5 4 4 9 26 48 58 58 58 62 66 69 72 74 75 78 81 82 83 84 85 84 84 84 85 89 94 97 98 98 95 92 90 88 88 90 90 90 91 93 94 93 93 95 99 100 100 101 101 100 99 98 96 98 99 98 98 101 101 96
49 49 51 50 49 49 50 54 59 61 61 59 53 41 29 20 14 11 9 8 7 7 7 6 6 5 5 5 4 6 20 42 56 58 57 61 64 66 68 69 70 73 76 79 80 81 82 82 83 82 83 86 89 92 95 96 96 95 91 88 87 88 89 92 93 92 92 93 94 98 100 101 100 99 100 101 100 97 95 96 98 99 101 102 101 99
51 49 50 51 50 49 50 53 59 62 62 61 54 43 31 22 15 11 10 8 7 7 6 6 6 6 5 5 4 5 14 34 51 58 58 60 63 65 65 66 67 68 70 74 77 79 81 83 83 82 82 83 85 88 90 92 94 94 92 90 87 84 84 86 88 89 91 93 97 100 101 101 100 98 98 100 101 100 99 98 98 99 100 101 101 101
51 50 50 51 51 51 50 53 58 62 64 62 56 45 34 24 17 13 11 9 8 7 6 6 6 6 5 5 5 5 11 27 45 55 57 60 64 67 67 66 65 65 67 69 72 75 79 82 83 84 83 83 82 84 86 88 90 91 92 91 89 86 83 83 84 87 90 92 97 102 102 100 100 99 99 100 100 100 101 101 101 101 101 100 99 99
Wind_Speed
27 27 28 30 31 31 30 29 28 29 31 32 35 37 39 43 46 45 42 40 38 39 40 40 43 45 44 43 40 34 27 22 22 25 29 32 32 32 31 31 32 32 33 31 29 29 29 29 29 30 31 33 35 37 39 42 45 47 51 54 58 60 62 64 65 65 66 67 69 74 78 78 74 71 70 68 67 66 66 66 65 65 64 64 63 62
26 28 29 29 29 29 28 28 30 31 32 34 35 38 41 39 45 48 42 38 37 38 42 44 44 43 40 37 34 28 23 20 21 25 29 32 32 32 32 32 33 33 31 29 27 27 27 29 30 31 33 35 37 40 42 45 48 51 54 57 60 63 65 67 68 69 70 72 76 80 79 74 70 67 65 63 62 61 60 59 59 58 58 57 56 56
27 28 28 27 27 26 26 29 32 32 32 33 34 37 38 37 45 52 46 40 40 41 45 43 36 34 32 31 29 25 22 19 20 24 29 31 32 33 33 33 33 32 29 27 26 26 27 28 30 32 35 37 40 43 46 48 51 53 55 57 60 64 67 69 72 74 75 76 76 74 69 65 62 61 59 57 57 55 55 54 53 53 51 50 49 49
28 28 27 26 26 24 25 29 32 33 32 31 33 34 37 41 41 45 50 48 44 44 40 31 26 29 30 28 25 22 21 21 22 25 28 31 33 33 34 33 32 30 27 26 26 26 28 30 32 34 37 40 43 46 50 52 54 57 59 61 64 67 69 72 74 74 73 70 67 62 59 56 54 53 52 51 50 50 49 49 49 48 46 45 44 43
27 27 25 25 24 22 25 30 31 33 35 35 32 31 38 46 40 41 48 49 48 43 31 23 24 30 30 24 21 22 21 23 24 26 29 32 34 34 34 33 30 28 26 26 27 28 31 33 36 39 43 46 49 52 54 57 59 63 66 67 69 70 72 71 69 66 64 61 59 56 53 51 50 48 47 46 45 45 45 45 44 43 42 42 41 40
26 25 24 25 22 21 25 30 30 31 37 38 35 37 43 44 42 44 44 43 44 35 25 25 20 18 24 25 24 26 25 25 27 28 30 33 34 35 33 31 28 25 25 26 28 31 35 40 43 46 50 53 56 58 60 63 65 69 70 70 69 69 67 64 61 59 57 56 54 52 51 50 49 48 46 44 44 43 42 42 41 40 39 39 39 39
27 24 23 24 20 22 26 29 29 30 35 37 39 43 44 43 43 42 40 38 34 27 26 27 16 11 24 29 26 27 27 27 29 30 33 34 35 34 31 27 25 24 26 28 32 37 42 47 51 54 56 60 63 64 66 68 71 73 71 68 65 62 60 57 55 54 53 52 51 50 50 49 48 48 47 45 44 44 43 41 40 39 39 39 39 38
26 23 22 21 20 25 29 29 30 31 33 36 43 45 45 45 40 37 40 35 26 28 27 21 14 14 21 26 23 24 26 28 31 32 35 36 34 31 28 24 23 25 29 33 39 44 50 54 57 59 62 65 67 68 69 70 74 76 72 66 61 57 54 52 50 49 48 48 47 47 48 48 47 48 48 47 46 45 45 44 42 42 42 41 40 39
26 23 23 23 25 28 29 30 30 31 32 38 44 45 45 44 38 38 39 32 27 26 20 21 22 12 15 25 25 22 25 27 31 33 35 34 30 26 23 22 25 30 37 44 50 55 58 60 61 63 65 67 68 69 70 72 77 78 72 65 61 56 53 49 46 45 43 42 42 43 45 46 47 47 48 48 48 47 47 46 45 44 44 43 42 41
24 22 24 26 29 30 29 30 30 30 33 39 43 44 46 42 41 41 34 31 32 21 14 26 29 13 15 30 30 23 25 28 30 31 34 29 23 21 22 25 33 41 48 55 59 62 62 63 64 65 67 68 68 69 71 75 78 74 68 63 60 56 53 49 45 41 38 36 36 37 39 41 44 47 48 48 47 47 48 48 47 46 46 45 44 44
26 21 25 30 30 31 32 32 32 31 34 39 40 42 47 46 44 38 28 28 25 13 13 25 29 18 13 28 33 25 25 30 28 25 29 25 20 21 27 34 45 53 59 62 63 63 63 63 64 65 66 67 69 70 72 73 72 66 61 59 57 54 49 45 41 38 35 33 33 34 35 37 40 44 47 49 48 46 46 47 47 48 48 47 47 47
28 22 28 33 30 30 35 37 36 35 38 39 35 39 43 43 39 26 19 21 10 6 16 25 34 26 13 24 33 26 27 32 28 21 20 19 20 26 37 48 58 62 63 63 62 62 62 62 63 64 66 67 68 68 67 66 62 58 55 54 53 50 44 42 41 39 37 36 36 36 36 37 38 41 44 48 49 47 45 44 44 46 47 48 49 49
31 24 28 31 28 30 36 40 39 39 40 34 32 38 29 21 22 12 9 13 4 9 25 33 35 23 16 26 31 28 34 35 28 20 15 18 29 40 51 59 64 64 62 61 60 60 61 63 64 65 65 65 64 63 60 57 53 51 50 49 48 45 43 44 46 44 43 42 41 40 40 40 40 40 42 45 48 48 46 44 43 44 45 46 48 49
34 26 30 31 26 28 33 37 39 41 38 28 29 34 19 7 10 8 7 9 7 16 32 36 25 15 19 26 29 34 40 35 27 19 20 35 47 55 61 63 62 60 58 57 58 59 62 63 64 65 64 63 60 56 51 48 47 46 46 46 46 46 47 50 51 50 49 48 46 44 44 43 42 42 41 42 45 47 46 44 44 45 45 46 47 47
25 19 29 31 24 28 34 33 33 37 32 26 29 28 19 17 13 9 8 9 11 19 30 29 15 11 19 28 34 40 37 28 24 26 39 52 59 63 64 61 58 57 55 57 59 61 63 64 63 62 60 57 52 47 43 43 43 44 45 46 47 49 51 54 54 54 53 51 49 48 47 46 44 43 42 42 43 45 46 45 45 46 46 47 47 47
23 23 29 27 23 31 37 33 32 32 27 26 30 25 23 27 21 17 19 22 23 20 19 18 13 18 29 34 37 35 27 23 27 42 56 60 62 63 60 58 57 56 60 62 63 64 63 61 59 56 53 49 45 42 42 42 43 44 45 46 48 51 54 56 56 56 56 55 53 52 50 48 46 44 43 42 42 42 45 46 46 46 46 47 47 46
25 32 32 26 28 37 36 32 30 27 24 26 28 27 28 28 21 17 22 28 26 16 9 9 16 29 33 27 27 24 24 33 44 55 61 59 59 58 55 58 60 63 67 66 64 63 59 56 53 51 48 45 43 42 41 42 42 44 45 47 51 53 55 56 57 58 59 58 57 55 53 50 47 45 43 42 41 41 42 45 46 46 47 48 48 47
25 35 37 28 32 40 35 32 32 27 25 27 26 29 31 26 19 14 13 15 14 10 8 12 21 30 24 18 24 27 32 47 55 58 58 56 56 56 59 64 66 68 66 62 60 58 54 53 51 49 47 44 43 43 41 41 41 44 47 50 52 54 55 57 59 60 61 61 61 59 56 51 48 45 43 42 40 40 41 43 46 47 48 49 49 49
27 32 35 32 36 41 34 32 36 30 24 23 24 30 32 23 18 16 10 8 10 9 10 16 22 23 22 25 29 34 45 56 59 58 56 55 57 62 68 69 66 62 59 57 58 56 53 53 52 50 47 45 45 45 43 42 43 46 49 50 52 54 56 58 60 61 63 64 63 61 57 52 47 44 42 40 39 39 41 42 44 46 48 49 51 51
27 21 26 36 42 40 36 34 32 27 24 23 27 35 35 26 21 23 17 11 10 8 8 16 16 16 28 34 31 40 54 59 59 57 54 56 64 70 69 63 57 56 57 59 57 54 53 52 50 48 47 47 48 46 45 44 45 47 48 49 51 53 55 58 60 63 64 64 63 60 56 50 45 43 40 39 38 39 41 42 43 45 47 48 50 51
31 18 23 41 48 39 36 31 24 24 29 31 35 37 33 29 30 31 24 14 10 7 8 10 9 17 34 35 33 47 58 57 55 54 57 64 71 69 60 54 55 60 61 57 51 49 49 48 48 47 47 46 45 45 45 46 47 48 48 49 51 54 57 60 63 64 64 63 60 56 51 47 43 41 40 39 38 38 39 41 43 44 45 46 48 49
35 25 27 43 49 43 40 33 27 30 34 37 39 33 27 30 33 24 14 16 19 14 12 10 8 22 36 33 39 55 57 54 53 56 65 72 69 60 54 56 63 64 57 50 48 47 46 47 49 49 46 42 40 42 44 45 48 50 52 54 56 57 60 63 64 63 60 57 53 50 47 45 42 40 39 38 37 36 36 38 40 41 42 44 45 47
35 29 31 42 43 40 38 34 33 36 39 42 37 30 30 33 30 16 8 20 24 17 19 19 13 22 34 38 50 58 53 52 57 63 70 70 62 55 56 65 66 57 49 49 50 50 50 51 53 52 50 47 46 47 46 47 50 53 56 58 59 60 60 60 59 57 53 50 47 46 44 42 40 38 37 36 36 36 34 35 37 39 41 42 43 44
30 26 36 46 45 44 41 35 34 35 40 42 34 32 37 34 27 21 20 26 22 16 23 18 10 24 43 51 57 54 50 56 64 67 67 61 57 58 64 68 60 50 50 53 54 55 55 55 54 53 54 53 52 50 48 47 49 53 57 57 56 56 54 52 50 49 48 47 44 42 39 38 37 36 35 35 35 35 34 34 35 37 39 40 40 41
25 24 32 33 31 37 38 34 36 41 43 40 33 35 38 34 30 29 31 29 18 19 26 15 12 35 56 59 56 50 54 66 69 65 60 55 58 65 67 61 54 52 54 55 56 55 53 52 52 51 51 50 48 46 45 44 45 49 51 50 49 48 46 46 46 44 43 40 38 36 35 34 34 33 33 32 32 33 33 32 32 34 37 37 38 39
26 26 28 19 12 15 19 23 34 43 44 41 39 38 36 32 30 31 33 26 18 27 33 22 25 49 64 59 53 54 63 70 69 64 60 59 65 68 61 54 54 57 56 55 57 56 53 52 51 49 48 47 45 43 42 41 41 43 43 42 43 42 42 42 40 38 36 34 33 32 30 30 29 28 28 27 26 27 27 28 28 30 32 33 34 36
28 28 27 23 20 21 26 30 33 37 39 40 41 38 32 28 29 34 33 25 26 36 38 36 42 56 63 57 53 61 68 67 64 63 63 66 67 63 56 53 56 59 58 58 57 55 55 53 51 50 48 46 44 43 41 40 40 39 39 40 40 39 38 36 33 31 30 29 29 28 27 28 27 27 26 23 22 20 20 22 23 24 25 27 29 30
31 29 28 30 33 33 33 33 33 34 36 38 38 35 30 28 32 37 33 30 35 33 34 48 56 54 56 55 56 64 66 61 63 64 64 65 62 56 55 57 58 59 60 60 57 55 55 53 52 50 48 47 45 44 42 40 38 37 37 37 35 34 32 30 28 27 26 26 26 26 26 25 24 24 23 21 19 17 16 16 16 17 18 19 21 22
31 31 31 35 40 37 32 32 35 37 36 35 32 28 27 28 34 38 35 36 41 34 37 54 58 50 52 56 60 65 62 61 66 65 61 59 55 55 58 60 61 62 61 60 58 56 54 52 51 50 49 48 46 43 42 39 37 35 33 31 31 29 28 26 25 25 25 26 26 25 25 24 22 22 21 20 18 16 15 13 11 10 10 10 11 11
31 34 34 37 42 38 32 34 40 40 36 29 23 24 27 30 34 37 36 40 44 43 45 51 51 49 53 59 64 65 64 65 66 60 56 54 53 57 60 61 63 62 61 61 58 55 53 51 49 49 48 47 44 42 40 37 34 32 30 29 28 26 25 24 24 26 26 26 26 26 26 25 25 24 23 22 20 18 16 13 11 9 6 5 4 3
33 37 36 37 42 39 35 39 43 38 27 18 19 27 32 34 37 39 40 47 50 49 48 47 47 53 59 63 67 67 67 67 61 55 53 53 55 59 61 62 62 61 61 60 57 55 53 50 49 48 47 44 41 39 36 34 33 31 30 28 25 24 24 25 26 27 27 26 27 27 27 26 25 25 24 23 21 19 18 16 14 13 13 12 12 12
35 38 39 40 40 39 39 43 44 34 17 13 24 32 32 35 41 44 48 54 53 50 49 44 45 55 64 69 70 69 68 64 56 52 53 54 57 60 62 63 62 61 60 57 55 54 52 50 49 47 44 41 38 35 33 32 31 30 29 25 23 23 25 26 26 26 26 27 27 27 27 27 27 26 25 24 23 21 20 19 18 18 18 18 18 18
35 38 41 38 37 40 41 42 43 32 15 15 26 27 28 37 46 52 60 62 54 49 46 42 47 59 67 68 69 69 66 58 52 51 51 54 58 60 62 63 62 60 58 54 52 51 49 48 46 43 41 38 35 34 33 32 30 29 26 23 22 24 25 25 25 24 25 26 27 27 28 28 28 27 27 26 25 24 23 22 22 22 22 23 22 21
35 38 38 34 33 37 41 45 40 23 10 16 24 23 28 42 52 58 64 62 53 47 45 47 56 65 67 65 66 67 63 55 50 48 49 54 58 60 62 62 59 57 54 51 50 48 46 44 41 38 37 35 34 33 32 30 29 27 24 22 22 23 23 23 23 23 24 26 27 28 29 29 29 28 27 27 27 26 25 24 24 24 24 24 24 22
36 37 36 34 32 33 39 41 28 14 13 21 23 23 32 47 57 60 62 58 48 45 50 58 65 67 66 67 66 63 58 51 47 48 50 54 57 60 61 60 57 54 51 48 47 45 43 41 38 36 35 34 33 32 31 30 28 24 21 21 22 22 22 21 21 22 23 24 26 27 28 28 29 28 27 27 27 27 26 24 23 22 23 24 23 21
35 35 34 34 32 32 35 28 14 14 21 21 22 31 42 53 58 60 63 55 40 40 54 63 67 68 68 69 67 61 54 49 47 49 52 54 57 60 59 57 54 50 47 46 44 41 39 37 36 36 34 33 33 32 31 30 26 23 20 20 21 21 20 19 20 20 21 23 24 25 26 26 26 26 25 25 24 24 24 23 22 20 19 20 19 17
32 32 32 31 28 29 33 30 25 23 18 17 29 41 48 55 56 56 57 46 34 43 59 64 66 68 68 68 67 59 52 48 48 51 53 55 57 58 56 53 50 47 45 42 39 36 35 35 34 34 33 33 33 32 31 29 25 21 20 20 20 19 18 18 18 19 20 22 22 24 24 25 24 24 24 23 22 22 21 20 19 17 17 16 15 13
31 30 29 27 25 29 31 29 24 17 10 18 32 42 50 56 55 53 48 36 38 54 62 62 66 68 67 67 64 57 51 49 50 52 54 56 57 58 54 49 46 43 42 39 36 34 33 33 34 34 34 32 31 30 30 27 24 20 19 19 19 17 16 16 17 19 21 22 23 23 23 24 24 23 22 21 21 20 20 19 18 17 17 17 16 15
31 28 27 25 26 31 27 17 11 9 13 24 35 45 54 55 53 49 39 36 50 61 60 61 65 65 65 66 61 54 51 51 53 54 54 56 58 57 53 47 43 41 38 36 35 34 34 33 33 33 32 31 30 29 28 26 22 19 18 18 18 16 16 16 17 19 20 21 22 22 22 22 22 22 22 22 20 19 19 19 18 18 18 17 17 16
29 28 27 25 27 30 24 15 14 14 18 27 41 52 56 53 49 40 30 38 59 62 57 62 64 62 64 63 56 51 48 49 52 53 53 55 56 53 49 45 42 40 37 35 33 33 33 34 34 33 32 32 30 29 27 24 21 19 17 16 17 16 16 16 17 18 19 20 21 20 20 20 21 22 22 22 21 19 17 17 17 18 18 17 18 19
29 28 27 27 30 31 22 18 22 20 21 35 49 54 54 52 45 34 30 45 60 59 57 61 61 61 63 59 53 48 45 45 48 50 51 54 54 50 45 41 39 38 36 35 33 32 32 33 33 34 33 33 31 28 26 23 21 18 17 15 15 16 16 16 17 17 18 19 19 19 19 20 21 21 20 19 19 18 16 15 15 16 17 18 21 22
29 29 28 29 31 30 25 25 25 23 31 46 51 50 52 51 44 39 43 50 53 54 57 59 59 61 62 56 50 45 42 43 45 46 49 51 51 48 43 40 39 37 34 33 32 31 31 32 33 33 33 32 31 28 26 23 20 18 17 15 15 15 15 15 15 16 17 18 18 17 18 19 20 19 17 16 16 16 15 14 15 16 19 22 25 26
27 26 28 31 31 28 26 24 19 20 36 49 50 49 52 49 43 46 50 49 49 53 56 56 57 60 59 55 48 42 41 43 44 45 48 49 49 47 42 40 40 38 35 33 32 31 31 31 32 33 33 33 32 29 26 23 20 18 17 17 16 15 15 15 15 16 16 17 17 17 17 18 19 18 16 15 14 13 12 13 15 18 22 25 27 27
25 25 24 26 27 25 24 21 18 26 40 46 45 46 48 46 44 46 48 49 50 52 53 55 57 57 57 54 47 42 41 43 44 46 47 48 48 47 42 39 38 37 36 34 32 31 31 30 31 32 32 32 31 29 26 23 20 19 18 18 17 16 16 16 15 15 16 16 16 17 17 19 19 18 16 14 12 11 11 13 16 19 23 25 26 27
26 26 25 25 25 24 24 26 31 37 40 40 42 44 44 44 44 44 45 48 50 51 53 55 55 55 56 53 47 42 42 42 44 45 46 47 48 47 43 40 37 36 36 34 32 31 30 30 30 30 30 31 30 28 26 23 21 20 19 18 18 17 17 16 15 15 15 15 16 17 18 20 21 20 18 16 13 11 11 13 16 19 22 24 24 26
28 28 27 28 30 29 27 28 34 38 38 39 41 43 42 43 44 44 45 47 48 50 52 53 54 55 54 51 47 42 40 41 43 44 45 46 47 47 44 40 36 36 35 34 32 30 29 29 29 28 28 29 28 27 25 23 22 21 20 19 19 18 17 16 15 15 15 16 16 16 17 19 20 20 19 18 18 16 14 15 17 18 20 22 23 24
29 29 29 30 31 31 30 30 33 37 38 39 42 43 42 43 43 44 45 46 46 48 50 51 53 54 52 51 47 42 39 40 42 43 44 45 45 46 46 42 38 35 34 34 33 31 29 28 27 27 27 27 27 27 25 23 22 21 20 20 19 18 17 16 15 15 15 15 16 16 17 18 19 19 19 19 20 19 16 16 18 18 19 20 21 22
29 30 31 32 31 31 32 33 35 37 37 39 42 44 43 43 43 44 44 45 45 46 47 49 52 53 52 51 47 41 39 39 40 41 43 43 44 45 46 44 41 36 33 33 32 31 29 29 28 28 27 27 27 26 25 24 22 20 19 19 19 18 18 17 16 16 16 16 17 18 19 20 20 19 19 20 20 17 15 16 17 17 18 20 22 24
31 30 31 33 33 32 33 35 37 38 39 40 43 44 43 43 44 44 44 44 45 45 46 48 50 52 52 50 47 42 39 37 38 40 41 42 43 44 45 45 44 40 35 33 32 31 31 30 29 28 27 27 26 26 25 24 23 21 20 19 18 18 18 18 18 17 17 17 17 18 20 21 21 19 19 19 19 17 17 17 17 17 18 21 24 26
31 31 30 32 34 34 34 35 37 39 40 41 42 43 43 43 44 44 44 44 44 46 47 48 48 50 51 50 47 43 39 37 37 38 39 41 42 43 44 45 45 43 39 34 31 31 30 30 29 29 28 27 26 25 24 24 23 22 21 20 19 18 17 17 18 18 18 18 18 19 20 21 20 19 18 17 16 17 19 19 18 18 20 22 24 26
32 31 30 31 33 34 33 34 35 37 39 40 41 42 43 42 43 44 43 44 45 47 48 48 48 48 49 49 48 44 40 37 36 36 38 40 40 42 43 44 45 45 43 38 33 30 29 28 28 27 27 26 25 25 24 23 23 23 22 21 20 19 18 17 17 17 18 19 20 20 21 21 19 18 17 17 15 15 17 17 17 19 21 23 24 25
Wind_Direction
351 349 349 349 349 347 346 345 342 338 335 332 328 323 320 318 316 319 323 324 325 322 322 324 319 314 312 309 306 304 302 293 274 255 244 238 235 235 237 241 247 252 256 257 259 263 266 270 274 279 284 287 289 291 293 295 297 299 301 303 304 305 305 304 303 301 300 299 298 298 299 299 296 294 291 290 288 287 286 285 284 283 282 281 280 279
351 351 352 350 346 343 343 342 338 336 333 330 327 322 319 320 319 321 325 326 326 323 322 324 318 311 309 307 305 305 302 289 268 251 241 237 235 237 241 244 248 251 253 255 259 265 270 274 279 285 290 293 295 297 300 303 305 305 305 305 305 305 304 303 302 301 300 299 299 299 299 298 296 295 293 292 291 289 288 286 285 284 282 281 279 278
355 352 350 347 344 343 342 341 337 332 330 328 328 324 321 326 326 324 327 327 324 322 322 323 316 308 306 304 302 302 296 283 265 249 238 237 239 241 244 246 249 251 252 257 262 269 276 280 285 290 295 298 301 305 309 311 310 309 307 305 304 304 304 303 303 302 301 300 299 298 297 296 296 295 294 293 292 290 288 286 284 282 280 278 277 275
356 350 347 345 343 343 341 340 335 328 328 329 332 330 325 330 328 323 325 327 324 322 324 324 315 307 306 301 297 294 288 278 265 251 242 239 240 242 245 247 250 252 255 262 270 277 284 290 295 299 304 307 310 313 315 314 313 312 311 309 307 307 306 305 304 302 301 299 298 297 296 296 295 294 294 292 291 289 286 284 281 279 276 275 274 273
355 349 345 343 343 344 340 338 335 331 331 333 338 336 329 330 328 320 322 326 325 326 331 329 317 309 306 301 294 291 284 275 267 258 250 243 242 244 246 248 250 255 262 270 279 287 295 302 308 311 314 316 317 317 316 315 314 314 314 313 312 310 308 306 304 302 300 299 297 297 296 294 292 291 290 289 288 286 283 281 278 276 274 273 273 272
354 350 345 344 345 342 338 338 339 337 332 334 342 338 330 329 327 322 324 326 325 327 333 327 318 306 303 299 295 294 285 276 272 265 256 248 245 245 246 250 255 263 273 280 289 299 307 313 316 318 319 321 321 319 317 316 316 317 317 316 314 311 308 305 303 302 301 300 299 298 296 294 292 289 287 285 284 283 280 278 276 274 272 271 271 269
354 354 347 346 347 340 340 343 344 341 332 333 339 335 330 329 325 324 327 327 321 317 325 323 308 285 298 302 299 293 286 280 276 269 260 250 245 246 248 256 266 276 285 293 303 311 315 318 319 321 323 323 322 320 319 319 320 321 320 316 313 310 308 306 305 304 303 302 300 298 295 293 291 289 287 285 283 281 280 278 276 274 272 271 271 270
356 357 350 349 348 342 346 349 347 343 333 331 336 332 329 328 325 326 329 328 322 318 328 337 318 282 290 307 310 298 289 284 280 273 261 250 245 249 255 265 280 293 303 310 315 319 320 321 323 324 325 325 323 322 323 323 323 323 320 317 314 312 310 308 306 305 303 301 298 295 292 289 287 286 285 284 282 280 278 276 276 275 274 273 272 272
359 358 358 357 350 347 352 353 347 342 334 331 334 331 329 329 327 329 331 334 335 327 334 354 345 310 291 313 319 304 288 288 291 277 258 250 250 257 268 283 300 311 318 322 323 324 324 325 327 327 326 326 325 325 326 325 324 322 320 318 317 315 313 311 309 305 302 300 297 292 289 287 284 283 282 281 280 278 276 274 274 273 273 273 273 273
3 3 5 359 350 350 353 352 345 339 335 333 334 332 330 330 330 332 334 335 337 332 330 343 344 333 307 315 317 307 296 301 302 275 252 250 257 272 291 307 318 322 325 326 326 327 328 328 328 328 327 327 327 327 326 324 322 321 319 318 317 316 316 315 313 309 305 301 298 293 289 287 284 282 280 279 278 277 275 273 272 271 271 271 272 272
7 8 8 0 354 353 350 348 344 340 338 338 338 336 331 330 333 332 330 333 336 326 321 333 335 330 310 312 316 313 306 307 302 271 251 254 267 291 312 321 325 326 327 327 327 328 329 329 329 329 328 328 327 326 324 322 321 320 319 318 317 318 319 319 318 315 311 306 303 299 294 291 288 285 281 279 277 276 275 273 272 271 270 269 269 270
9 11 6 1 356 353 348 343 341 342 343 343 343 343 335 331 334 330 324 334 334 293 321 330 328 324 299 305 316 316 310 308 301 280 260 268 294 315 323 326 327 328 329 329 330 330 330 329 329 328 327 326 325 324 322 321 320 319 318 318 318 319 321 322 322 320 317 313 309 306 301 296 291 287 284 281 278 277 276 276 274 272 270 267 266 266
6 9 4 0 356 352 349 343 340 340 345 346 346 347 341 329 331 329 323 334 304 287 320 324 321 313 286 301 313 314 316 315 303 287 282 310 325 327 326 327 328 329 330 331 332 331 330 329 328 326 325 324 323 322 321 319 319 319 319 319 320 321 322 324 324 323 321 317 313 309 305 299 293 288 284 282 279 277 276 276 276 274 272 268 264 263
359 4 0 357 356 355 352 347 341 339 345 353 352 348 348 332 324 322 319 320 301 306 316 321 319 296 292 309 317 318 320 317 304 304 326 331 330 329 328 329 328 330 332 332 331 329 328 327 326 324 323 321 321 320 319 318 319 319 319 320 320 320 322 323 323 323 322 319 315 311 307 302 297 291 285 282 279 276 274 274 274 274 274 271 267 264
350 350 354 353 353 355 353 351 344 338 344 353 351 349 350 345 327 304 313 315 311 315 317 322 318 298 313 320 319 320 320 313 310 329 336 332 330 330 328 327 328 331 331 329 328 326 324 323 322 321 320 320 321 320 320 319 319 318 317 318 318 318 319 319 320 321 321 319 316 313 310 305 300 294 288 283 280 276 273 271 272 273 274 274 272 270
339 332 347 351 349 353 351 350 347 343 345 347 347 348 345 340 322 295 304 310 308 311 314 314 307 318 323 318 317 320 318 318 330 337 335 331 329 327 324 325 327 329 328 326 324 323 322 321 320 320 321 322 322 321 320 319 317 315 313 313 314 314 315 316 317 319 319 318 316 314 312 307 301 296 290 284 279 275 272 270 270 271 272 274 274 273
337 333 349 355 349 353 351 348 351 350 346 344 345 345 340 338 329 305 308 313 312 307 310 312 311 322 323 316 319 324 326 336 340 336 333 329 327 324 324 327 327 327 326 324 323 323 322 322 322 322 322 321 321 321 320 318 314 310 309 309 310 312 313 314 315 317 317 316 315 314 312 308 303 297 291 284 279 274 269 267 268 269 271 273 274 273
336 331 346 354 347 351 351 346 351 357 352 347 344 342 340 339 340 333 318 315 316 306 310 323 319 323 329 325 323 329 341 343 339 333 331 328 326 326 327 328 327 325 324 323 323 323 322 321 320 320 318 317 318 319 319 316 310 306 306 307 309 311 313 313 314 315 315 315 314 313 311 307 302 297 291 285 279 273 267 263 264 266 269 272 273 273
341 329 339 348 344 348 354 349 349 356 356 349 343 344 348 346 341 340 332 313 321 313 305 317 319 324 334 326 323 337 345 340 334 331 329 328 329 329 327 327 326 324 324 323 323 322 321 319 318 317 315 314 316 316 315 311 306 304 305 307 309 310 311 312 313 313 313 313 312 311 309 306 301 297 291 285 279 274 268 263 262 263 266 269 271 272
347 327 326 339 342 346 354 353 349 350 353 351 349 349 350 349 335 329 326 314 313 310 305 317 321 331 331 325 329 342 341 334 332 330 328 328 329 327 326 327 326 326 325 325 324 323 320 318 316 315 314 315 316 315 312 308 306 306 306 307 307 307 308 309 310 311 311 310 309 309 308 304 301 296 291 284 279 274 271 267 265 264 265 267 268 269
348 330 312 332 343 346 352 354 350 350 355 354 350 349 348 346 337 330 326 324 324 315 312 317 311 322 326 325 333 338 334 331 330 328 326 325 325 326 329 330 328 327 326 325 324 323 320 316 314 313 315 318 316 312 310 307 305 305 303 302 303 303 305 306 308 309 308 308 309 309 307 304 300 297 291 285 279 275 273 270 268 267 266 266 266 266
345 333 316 329 340 344 348 353 353 353 354 349 347 348 344 341 342 338 326 328 332 320 307 305 295 315 324 328 332 333 331 329 328 325 324 324 327 333 334 329 328 328 327 325 324 322 319 317 314 314 316 316 310 306 306 304 303 302 301 301 302 303 304 306 307 307 308 309 310 310 308 305 302 298 292 286 280 276 274 270 268 267 265 264 264 264
343 336 328 329 334 341 348 352 352 350 346 343 345 342 335 338 346 349 318 320 326 320 314 310 295 312 324 329 331 331 329 326 325 325 326 330 335 336 330 327 329 329 327 326 324 323 321 318 316 315 313 311 306 303 302 303 303 301 300 302 304 305 306 307 309 310 312 313 313 311 309 307 304 300 295 289 284 279 275 270 268 266 264 264 263 263
346 341 335 333 335 341 346 347 347 345 341 341 342 336 333 337 341 339 333 328 323 322 325 316 289 314 324 329 330 330 328 325 326 329 333 336 336 332 328 329 330 330 328 326 324 324 323 321 321 319 317 315 313 311 308 307 305 302 302 306 308 309 310 312 314 316 317 317 315 314 312 309 306 302 297 293 289 285 281 275 270 266 265 263 262 261
349 345 339 336 337 341 344 345 341 338 339 339 337 332 331 332 333 335 340 339 327 326 330 320 295 316 323 328 330 329 327 328 331 336 338 337 332 329 330 330 332 334 333 329 327 329 330 329 327 327 326 325 324 322 318 314 311 309 311 314 315 316 317 318 319 320 320 320 319 319 316 313 309 305 301 297 294 291 287 282 275 268 264 262 259 259
345 345 345 342 331 327 327 327 329 330 332 335 335 331 328 333 339 342 346 346 333 328 328 319 307 315 322 329 331 330 330 332 337 339 337 334 331 330 331 331 333 335 334 331 331 332 333 332 332 333 333 332 331 329 327 324 321 320 321 321 321 321 321 322 324 325 326 326 326 325 323 322 319 316 312 307 301 295 288 283 277 269 265 262 259 258
342 344 346 339 324 316 313 318 328 331 329 331 332 329 327 332 340 346 351 348 335 328 323 321 320 319 324 331 332 332 334 336 338 338 334 333 332 332 334 334 333 334 334 334 334 334 334 335 336 336 335 334 334 333 332 331 330 328 327 325 325 325 327 330 332 334 334 334 335 337 337 336 334 331 328 324 317 308 296 289 280 272 268 263 260 259
340 341 344 337 330 330 329 330 337 336 330 330 329 324 324 330 338 346 349 345 339 331 319 323 327 323 325 331 332 334 337 337 336 335 334 333 333 334 336 336 336 336 335 335 337 337 337 337 338 337 335 335 335 335 335 335 333 332 331 330 332 335 338 342 343 345 346 348 350 351 349 347 344 342 340 338 335 330 321 310 295 285 277 269 265 263
340 341 341 337 334 338 343 340 339 338 334 332 325 320 325 333 340 344 344 342 341 331 318 324 327 324 327 332 333 336 338 336 335 336 336 335 335 336 338 338 338 337 335 337 339 339 339 339 339 337 336 337 338 338 339 339 339 339 340 342 345 348 351 353 355 357 359 0 1 2 1 1 0 1 0 357 355 354 349 341 329 316 300 285 277 272
342 341 341 337 334 341 350 344 341 342 337 329 321 321 328 335 339 342 342 341 338 331 326 326 325 326 332 334 334 336 338 337 338 340 340 339 338 339 340 340 339 337 337 339 340 341 341 341 339 339 339 341 343 343 343 345 348 350 353 354 356 359 3 5 7 7 6 7 9 10 11 11 11 13 14 12 12 14 13 14 15 17 23 25 31 44
342 341 341 338 334 342 351 345 343 346 337 322 325 331 332 335 340 344 343 341 338 334 331 328 326 330 334 334 335 338 340 341 343 345 342 341 342 341 340 340 339 338 340 342 342 342 343 343 343 344 345 346 348 348 349 352 355 358 359 0 5 10 13 14 13 11 11 13 15 17 17 17 18 20 22 21 22 25 28 33 38 44 55 61 65 68
343 340 342 342 335 339 348 345 344 348 341 328 337 338 337 340 343 344 342 341 340 335 331 332 332 333 335 335 337 341 344 344 346 346 343 343 344 341 339 340 341 340 342 343 343 343 344 345 347 349 350 350 352 354 355 357 359 0 1 6 15 19 18 17 16 17 19 20 22 23 24 26 28 29 31 32 33 36 40 45 50 56 62 66 68 68
344 342 344 345 335 336 345 343 342 351 356 342 339 334 332 340 343 340 338 340 340 336 333 333 332 332 334 336 337 341 344 346 346 346 345 345 345 341 340 341 342 342 343 344 344 345 347 349 351 353 354 355 356 358 358 358 -0 2 6 15 22 22 21 21 22 26 28 27 28 29 31 34 35 37 40 41 43 46 49 53 58 63 66 67 68 68
344 343 345 345 335 333 340 341 345 2 8 329 325 321 326 337 341 338 337 338 339 337 335 332 331 333 336 337 339 341 344 346 347 347 347 346 344 342 342 343 343 343 344 345 346 348 350 353 356 358 357 357 358 358 358 359 1 5 14 23 25 25 27 28 30 34 34 33 34 35 38 39 40 42 44 45 46 48 50 54 58 60 62 61 61 62
344 344 345 346 338 333 340 346 354 6 338 321 321 323 330 337 338 335 335 338 339 338 337 335 336 338 338 339 342 344 344 347 348 349 349 348 345 344 344 344 344 345 346 347 350 351 353 356 359 1 1 360 359 0 0 0 4 12 22 29 29 30 33 34 37 37 36 37 38 38 40 41 42 45 45 46 46 46 47 50 54 57 58 54 51 49
344 345 346 347 343 339 342 347 345 331 330 331 333 333 335 337 338 335 335 339 342 338 337 337 338 340 341 343 346 347 346 347 349 351 351 349 347 347 347 346 345 346 348 351 353 354 356 -0 2 2 3 2 1 2 2 3 9 19 28 32 32 34 37 38 39 38 37 39 39 39 40 40 41 43 44 45 47 46 47 48 49 52 54 51 49 47
344 345 346 347 348 345 340 333 328 330 334 340 340 339 336 337 338 335 331 335 343 341 339 340 340 341 343 345 346 348 348 349 352 354 352 350 349 349 348 347 347 348 350 353 355 357 360 3 4 4 6 4 2 2 3 5 13 24 33 35 33 36 39 38 38 37 37 38 40 41 41 41 41 42 41 42 42 42 43 43 41 41 41 40 41 37
344 345 347 346 346 347 343 334 334 337 334 337 338 335 335 337 338 334 328 332 346 345 342 342 341 341 344 346 347 349 348 350 356 357 353 351 352 352 350 350 350 351 353 354 357 2 4 5 6 6 7 6 4 4 5 7 15 27 34 34 34 36 37 37 37 35 34 36 37 38 40 40 39 39 38 38 37 36 37 36 35 34 30 27 26 21
344 343 347 346 345 348 345 331 321 312 312 326 330 332 336 338 338 337 335 339 347 347 343 342 342 342 344 346 348 349 348 349 353 356 354 353 355 353 351 352 353 355 357 358 0 3 5 7 9 8 7 8 7 7 8 11 18 29 34 33 33 34 33 35 35 31 30 32 31 31 33 34 34 34 33 32 31 32 34 34 33 32 29 25 20 14
346 344 346 347 345 346 343 323 312 304 303 321 332 335 336 336 339 345 345 339 343 346 344 342 342 342 344 346 348 349 349 347 347 351 354 355 356 355 353 353 356 357 359 2 4 4 5 7 8 8 9 11 12 11 12 14 21 28 31 30 30 30 30 31 31 28 28 28 26 26 26 27 28 29 28 27 25 27 32 34 32 27 22 16 10 2
347 346 346 346 344 346 343 319 314 316 321 332 336 335 334 338 346 350 339 333 338 343 344 344 344 343 345 347 349 349 349 346 345 349 354 356 357 356 354 355 358 359 0 3 5 6 6 7 8 9 10 11 13 14 14 16 23 27 27 27 28 28 29 29 27 24 23 24 25 26 25 26 25 24 25 26 24 24 26 28 26 19 11 7 3 357
344 345 344 344 344 345 340 328 327 335 339 337 335 334 337 344 347 341 335 336 338 341 344 346 345 344 345 349 349 348 347 348 349 351 356 359 359 357 356 358 359 1 4 5 4 5 7 6 7 9 11 12 14 16 16 17 22 24 23 24 24 24 24 23 19 16 16 21 25 26 27 28 26 23 22 21 20 21 21 17 12 9 7 6 3 359
342 342 342 343 344 342 339 340 341 335 333 334 335 337 342 345 342 337 338 342 342 343 345 348 347 346 346 349 350 348 348 351 352 355 359 2 1 360 360 360 360 2 5 5 5 6 6 7 7 8 10 12 13 15 17 19 21 21 21 20 19 18 18 16 12 11 13 18 21 22 25 25 24 23 22 16 12 11 12 11 8 7 8 7 4 3
341 340 336 339 343 337 332 334 331 326 330 335 337 337 338 341 340 339 341 344 345 347 347 348 349 348 347 348 351 350 350 353 355 357 1 3 4 3 2 1 1 3 4 5 5 5 6 7 7 7 10 12 12 12 15 18 20 19 17 15 13 13 11 11 9 10 12 14 15 16 18 18 17 20 21 18 13 7 5 8 8 8 7 6 6 8
339 339 333 333 337 334 328 329 330 333 337 338 337 337 338 339 341 342 343 345 347 348 348 348 350 350 349 350 352 351 352 354 356 359 2 4 5 6 4 2 2 3 4 5 5 4 5 6 7 9 10 10 10 10 12 15 17 17 15 12 10 9 7 6 6 7 9 11 12 13 12 11 11 12 13 14 17 14 6 4 7 9 8 6 5 8
337 339 336 334 335 333 334 335 334 336 340 339 338 340 341 341 342 344 345 347 348 349 349 349 350 351 351 352 353 353 353 354 356 360 3 5 7 8 6 4 2 2 4 5 5 5 5 5 6 9 10 9 9 8 10 12 12 12 13 12 10 9 10 9 8 8 7 8 9 9 9 9 10 7 4 8 13 13 7 4 8 11 9 4 2 4
339 338 335 334 334 332 335 337 336 337 341 341 340 342 343 343 344 345 346 349 350 350 350 350 351 353 353 353 354 354 353 354 357 360 3 5 8 9 8 6 4 2 3 4 4 5 5 4 5 7 9 10 8 6 8 11 10 8 7 7 6 8 10 10 10 8 6 5 6 6 7 11 10 4 1 4 9 10 9 8 8 8 5 3 2 3
338 337 334 333 334 333 334 338 339 341 343 343 341 343 344 344 345 346 347 349 350 351 352 352 352 354 354 354 355 355 355 356 357 359 3 6 8 9 10 8 5 4 3 2 3 4 4 4 5 6 7 8 6 4 5 6 6 6 4 2 2 3 2 3 4 3 2 2 3 3 2 5 5 2 359 360 3 10 16 13 7 3 3 2 1 2
338 338 334 332 335 337 338 339 340 341 344 345 344 344 345 345 345 347 348 349 350 351 354 355 355 354 355 355 356 356 356 357 357 359 2 6 8 9 10 10 9 6 3 1 1 2 3 4 4 5 6 6 4 2 2 2 2 2 0 0 1 1 359 357 356 357 359 359 358 358 358 358 357 358 358 357 359 6 13 12 6 4 3 1 359 359
338 338 336 334 336 339 340 340 341 341 344 345 344 344 345 345 345 347 348 349 350 352 355 357 357 357 356 355 356 357 357 357 358 359 1 5 8 9 10 11 12 10 7 3 0 0 2 3 3 2 3 3 1 0 359 359 358 357 356 356 356 357 358 355 352 351 353 353 353 353 354 353 353 356 360 0 1 2 2 2 3 0 359 358 358 356
337 337 337 336 337 339 339 340 341 341 341 343 343 344 345 345 345 346 348 349 351 354 355 356 357 358 358 356 356 357 358 357 358 360 1 3 7 9 10 11 12 13 12 8 3 360 360 1 2 2 0 359 359 359 358 357 356 354 353 351 348 348 348 347 347 345 344 345 346 347 349 350 353 357 359 0 2 1 356 356 358 356 355 356 355 353